Location: Mascot Post Office (historical)
(40.2645°N, 99.5462°W)
Time: 02:45:14
(UTC+00:00)

Cosmos 2233 Rocket - Pass Details

Date: 14 July 2020
Orbit: 954 x 990 km, 82.9° (Epoch: 14 August)

Event Time Altitude Azimuth Distance (km) Brightness Sun altitude
Exits shadow 09:38:04 24° 225° (SW) 1,881 4.9 -16.1°
Maximum altitude 09:41:24 44° 283° (WNW) 1,323 4.5 -15.7°
Drops below altitude 10° 09:47:20 10° 354° (N) 2,735 6.9 -14.9°
Sets 09:50:01 0° 1° (N) 3,692 7.8 -14.5°
